QPF
0.00 0.00 0.00 0.00 0.00 0.00 0.00 0.00 0.00 0.00 0.00 0.00 0.00 0.00 0.00 0.00 0.00 0.00 0.00 0.00 0.00 0.00 0.00 0.00 0.01 0.04 0.04 0.03 0.02 0.02 0.01 0.01 0.00 0.00 0.00 0.00 0.00 0.00 0.00 0.00 0.01 0.02 0.02 0.02 0.01 0.01 0.00 0.00 0.00
0.00 0.00 0.00 0.00 0.00 0.00 0.00 0.00 0.00 0.00 0.00 0.00 0.00 0.00 0.00 0.00 0.00 0.00 0.00 0.00 0.00 0.00 0.00 0.00 0.00 0.02 0.03 0.03 0.02 0.01 0.01 0.01 0.00 0.00 0.00 0.00 0.00 0.00 0.00 0.01 0.01 0.02 0.02 0.01 0.01 0.00 0.00 0.00 0.00
0.00 0.00 0.00 0.00 0.00 0.00 0.00 0.00 0.00 0.00 0.00 0.00 0.00 0.00 0.00 0.00 0.00 0.00 0.00 0.00 0.00 0.00 0.00 0.00 0.00 0.02 0.02 0.02 0.02 0.01 0.01 0.01 0.00 0.00 0.00 0.00 0.00 0.00 0.00 0.01 0.01 0.01 0.01 0.01 0.01 0.00 0.00 0.00 0.00
0.00 0.00 0.00 0.00 0.00 0.00 0.00 0.00 0.00 0.00 0.00 0.00 0.00 0.00 0.00 0.00 0.00 0.00 0.00 0.00 0.00 0.00 0.00 0.00 0.00 0.01 0.02 0.02 0.02 0.02 0.02 0.01 0.00 0.00 0.00 0.00 0.00 0.00 0.00 0.00 0.01 0.01 0.01 0.00 0.00 0.00 0.00 0.00 0.00
0.00 0.00 0.00 0.00 0.00 0.00 0.00 0.00 0.00 0.00 0.00 0.00 0.00 0.00 0.00 0.00 0.00 0.00 0.00 0.00 0.00 0.00 0.00 0.00 0.00 0.01 0.02 0.03 0.02 0.02 0.02 0.01 0.00 0.00 0.00 0.00 0.00 0.00 0.00 0.00 0.00 0.00 0.00 0.00 0.00 0.00 0.00 0.00 0.00
0.00 0.00 0.00 0.00 0.00 0.00 0.00 0.00 0.00 0.00 0.00 0.00 0.00 0.00 0.00 0.00 0.00 0.00 0.00 0.00 0.00 0.00 0.00 0.00 0.00 0.00 0.01 0.02 0.02 0.02 0.02 0.01 0.00 0.00 0.00 0.00 0.00 0.00 0.00 0.00 0.00 0.00 0.00 0.00 0.00 0.00 0.00 0.00 0.00
0.00 0.00 0.00 0.00 0.00 0.00 0.00 0.00 0.00 0.00 0.00 0.00 0.00 0.00 0.00 0.00 0.00 0.00 0.00 0.00 0.00 0.00 0.00 0.00 0.00 0.00 0.00 0.00 0.01 0.01 0.01 0.01 0.00 0.00 0.00 0.00 0.00 0.00 0.00 0.00 0.00 0.00 0.00 0.00 0.00 0.00 0.00 0.00 0.00
0.00 0.00 0.00 0.00 0.00 0.00 0.00 0.00 0.00 0.00 0.00 0.00 0.00 0.00 0.00 0.00 0.00 0.00 0.00 0.00 0.00 0.00 0.00 0.00 0.00 0.00 0.01 0.00 0.00 0.00 0.01 0.00 0.00 0.00 0.00 0.00 0.00 0.00 0.00 0.00 0.00 0.00 0.00 0.00 0.00 0.00 0.00 0.00 0.00
0.00 0.00 0.00 0.00 0.00 0.00 0.00 0.00 0.00 0.00 0.00 0.00 0.00 0.00 0.00 0.00 0.00 0.00 0.00 0.00 0.00 0.00 0.01 0.01 0.01 0.01 0.01 0.02 0.01 0.01 0.01 0.01 0.00 0.00 0.00 0.00 0.00 0.00 0.00 0.00 0.00 0.00 0.00 0.00 0.00 0.00 0.00 0.00 0.00
0.00 0.00 0.00 0.00 0.00 0.00 0.00 0.00 0.00 0.00 0.00 0.00 0.00 0.00 0.00 0.00 0.00 0.00 0.00 0.00 0.00 0.00 0.00 0.00 0.01 0.01 0.02 0.02 0.01 0.02 0.02 0.02 0.01 0.01 0.01 0.01 0.01 0.01 0.00 0.00 0.00 0.00 0.00 0.00 0.00 0.00 0.00 0.00 0.00
0.00 0.00 0.00 0.00 0.00 0.00 0.00 0.00 0.00 0.00 0.00 0.00 0.00 0.00 0.00 0.00 0.00 0.00 0.00 0.00 0.00 0.00 0.00 0.00 0.00 0.01 0.02 0.02 0.02 0.03 0.05 0.05 0.05 0.03 0.02 0.02 0.01 0.00 0.00 0.00 0.00 0.00 0.00 0.00 0.00 0.00 0.00 0.00 0.00
0.00 0.00 0.00 0.00 0.00 0.00 0.00 0.00 0.00 0.00 0.00 0.00 0.00 0.00 0.00 0.00 0.00 0.00 0.00 0.00 0.00 0.00 0.00 0.00 0.00 0.00 0.01 0.02 0.02 0.03 0.04 0.04 0.05 0.04 0.02 0.02 0.01 0.00 0.00 0.00 0.00 0.00 0.00 0.00 0.00 0.00 0.00 0.00 0.00
0.00 0.00 0.00 0.00 0.00 0.00 0.00 0.00 0.00 0.00 0.00 0.00 0.00 0.00 0.00 0.00 0.00 0.00 0.00 0.00 0.00 0.00 0.00 0.00 0.00 0.00 0.00 0.01 0.01 0.02 0.03 0.03 0.04 0.04 0.03 0.02 0.01 0.01 0.01 0.00 0.00 0.00 0.00 0.00 0.00 0.00 0.00 0.00 0.00
0.00 0.00 0.00 0.00 0.00 0.00 0.00 0.00 0.00 0.00 0.00 0.00 0.00 0.00 0.00 0.00 0.00 0.00 0.00 0.00 0.00 0.00 0.00 0.00 0.00 0.00 0.00 0.00 0.01 0.01 0.02 0.02 0.03 0.03 0.02 0.02 0.02 0.01 0.01 0.00 0.00 0.00 0.00 0.00 0.00 0.00 0.00 0.00 0.00
0.00 0.00 0.00 0.00 0.00 0.00 0.00 0.00 0.00 0.00 0.00 0.00 0.00 0.00 0.00 0.00 0.00 0.00 0.00 0.00 0.00 0.00 0.00 0.00 0.00 0.00 0.00 0.00 0.00 0.00 0.01 0.01 0.02 0.03 0.02 0.02 0.02 0.02 0.01 0.00 0.00 0.00 0.00 0.00 0.00 0.00 0.00 0.00 0.00
0.00 0.00 0.00 0.00 0.00 0.00 0.00 0.00 0.00 0.00 0.00 0.00 0.00 0.00 0.00 0.00 0.00 0.00 0.00 0.00 0.00 0.00 0.00 0.00 0.00 0.00 0.00 0.00 0.00 0.00 0.00 0.01 0.01 0.02 0.02 0.02 0.02 0.02 0.01 0.01 0.01 0.00 0.00 0.00 0.00 0.00 0.00 0.00 0.00
0.00 0.00 0.00 0.00 0.00 0.00 0.00 0.00 0.00 0.00 0.00 0.00 0.00 0.00 0.00 0.00 0.00 0.00 0.00 0.00 0.00 0.00 0.00 0.00 0.00 0.00 0.00 0.00 0.00 0.00 0.00 0.00 0.00 0.01 0.02 0.02 0.02 0.02 0.01 0.01 0.01 0.00 0.00 0.00 0.00 0.00 0.00 0.00 0.00
0.00 0.00 0.00 0.00 0.00 0.00 0.00 0.00 0.00 0.00 0.00 0.00 0.00 0.00 0.00 0.00 0.00 0.00 0.00 0.00 0.00 0.00 0.00 0.00 0.00 0.00 0.00 0.00 0.00 0.00 0.00 0.00 0.00 0.00 0.01 0.01 0.02 0.02 0.02 0.01 0.01 0.00 0.01 0.01 0.00 0.00 0.00 0.00 0.00
0.00 0.00 0.00 0.00 0.00 0.00 0.00 0.00 0.00 0.00 0.00 0.00 0.00 0.00 0.00 0.00 0.00 0.00 0.00 0.00 0.00 0.00 0.00 0.00 0.00 0.00 0.00 0.00 0.00 0.00 0.00 0.00 0.00 0.00 0.00 0.00 0.01 0.01 0.01 0.01 0.01 0.01 0.01 0.01 0.00 0.00 0.00 0.00 0.00
0.00 0.00 0.00 0.00 0.00 0.00 0.00 0.00 0.00 0.00 0.00 0.00 0.00 0.00 0.00 0.00 0.00 0.00 0.00 0.00 0.00 0.00 0.00 0.00 0.00 0.00 0.00 0.00 0.00 0.00 0.00 0.00 0.00 0.00 0.00 0.00 0.00 0.01 0.01 0.01 0.01 0.01 0.01 0.01 0.01 0.01 0.00 0.00 0.00
0.00 0.00 0.00 0.00 0.00 0.00 0.00 0.00 0.00 0.00 0.00 0.00 0.00 0.00 0.00 0.00 0.00 0.00 0.00 0.00 0.00 0.00 0.00 0.00 0.00 0.00 0.00 0.00 0.00 0.00 0.00 0.00 0.00 0.00 0.00 0.00 0.00 0.00 0.01 0.01 0.01 0.01 0.01 0.01 0.01 0.00 0.00 0.00 0.00
0.00 0.00 0.00 0.00 0.00 0.00 0.00 0.00 0.00 0.00 0.00 0.00 0.00 0.00 0.00 0.00 0.00 0.00 0.00 0.00 0.00 0.00 0.00 0.00 0.00 0.00 0.00 0.00 0.00 0.00 0.00 0.00 0.00 0.00 0.00 0.00 0.00 0.00 0.01 0.01 0.01 0.01 0.01 0.01 0.00 0.00 0.00 0.00 0.00
0.00 0.00 0.00 0.00 0.00 0.00 0.00 0.00 0.00 0.00 0.00 0.00 0.00 0.00 0.00 0.00 0.00 0.00 0.00 0.00 0.00 0.00 0.00 0.00 0.00 0.00 0.00 0.00 0.00 0.00 0.00 0.00 0.00 0.00 0.00 0.00 0.00 0.00 0.00 0.01 0.01 0.01 0.01 0.01 0.01 0.01 0.01 0.00 0.00
0.00 0.00 0.00 0.00 0.00 0.00 0.00 0.00 0.00 0.00 0.00 0.00 0.00 0.00 0.00 0.00 0.00 0.00 0.00 0.00 0.00 0.00 0.00 0.00 0.00 0.00 0.00 0.00 0.00 0.00 0.00 0.00 0.00 0.00 0.00 0.00 0.00 0.00 0.00 0.01 0.01 0.01 0.01 0.01 0.01 0.01 0.01 0.01 0.01
0.00 0.00 0.00 0.00 0.00 0.00 0.00 0.00 0.00 0.00 0.00 0.00 0.00 0.00 0.00 0.00 0.00 0.00 0.00 0.00 0.00 0.00 0.00 0.00 0.00 0.00 0.00 0.00 0.00 0.00 0.00 0.00 0.00 0.00 0.00 0.00 0.00 0.00 0.00 0.00 0.01 0.01 0.01 0.01 0.01 0.01 0.01 0.01 0.01
0.00 0.00 0.00 0.00 0.00 0.00 0.00 0.00 0.00 0.00 0.00 0.00 0.00 0.00 0.00 0.00 0.00 0.00 0.00 0.00 0.00 0.00 0.00 0.00 0.00 0.00 0.00 0.00 0.00 0.00 0.00 0.00 0.00 0.00 0.00 0.00 0.00 0.00 0.00 0.00 0.00 0.01 0.01 0.01 0.01 0.02 0.02 0.01 0.01
0.00 0.00 0.00 0.00 0.00 0.00 0.00 0.00 0.00 0.00 0.00 0.00 0.00 0.00 0.00 0.00 0.00 0.00 0.00 0.00 0.00 0.00 0.00 0.00 0.00 0.00 0.00 0.00 0.00 0.00 0.00 0.00 0.00 0.00 0.00 0.00 0.00 0.00 0.00 0.00 0.00 0.00 0.01 0.01 0.01 0.02 0.02 0.02 0.02
0.00 0.00 0.00 0.00 0.00 0.00 0.00 0.00 0.00 0.00 0.00 0.00 0.00 0.00 0.00 0.00 0.00 0.00 0.00 0.00 0.00 0.00 0.00 0.00 0.00 0.00 0.00 0.00 0.00 0.00 0.00 0.00 0.00 0.00 0.00 0.00 0.00 0.00 0.00 0.00 0.00 0.00 0.01 0.01 0.01 0.01 0.01 0.01 0.02
0.00 0.00 0.00 0.00 0.00 0.00 0.00 0.00 0.00 0.00 0.00 0.00 0.00 0.00 0.00 0.00 0.00 0.00 0.00 0.00 0.00 0.00 0.00 0.00 0.00 0.00 0.00 0.00 0.00 0.00 0.00 0.00 0.00 0.00 0.00 0.00 0.00 0.00 0.00 0.00 0.00 0.00 0.00 0.01 0.01 0.01 0.01 0.01 0.01
0.00 0.00 0.00 0.00 0.00 0.00 0.00 0.00 0.00 0.00 0.00 0.00 0.00 0.00 0.00 0.00 0.00 0.00 0.00 0.00 0.00 0.00 0.00 0.00 0.00 0.00 0.00 0.00 0.00 0.00 0.00 0.00 0.00 0.00 0.00 0.00 0.00 0.00 0.00 0.00 0.00 0.00 0.00 0.01 0.01 0.01 0.01 0.01 0.01
MSLP
1012.55 1012.97 1013.57 1014.30 1015.07 1015.80 1016.43 1016.90 1017.20 1017.33 1017.36 1017.34 1017.32 1017.35 1017.43 1017.58 1017.76 1017.94 1018.12 1018.28 1018.43 1018.60 1018.82 1019.10 1019.44 1019.83 1020.23 1020.60 1020.90 1021.12 1021.24 1021.27 1021.26 1021.23 1021.23 1021.26 1021.33 1021.44 1021.56 1021.69 1021.81 1021.92 1022.02 1022.11 1022.20 1022.31 1022.40 1022.49 1022.55
1012.92 1013.42 1014.07 1014.79 1015.52 1016.18 1016.69 1017.04 1017.20 1017.23 1017.16 1017.07 1017.01 1017.01 1017.10 1017.24 1017.44 1017.64 1017.84 1018.04 1018.24 1018.47 1018.75 1019.08 1019.48 1019.90 1020.33 1020.72 1021.03 1021.25 1021.39 1021.46 1021.48 1021.51 1021.56 1021.64 1021.76 1021.91 1022.06 1022.20 1022.33 1022.43 1022.53 1022.62 1022.71 1022.80 1022.89 1022.95 1022.98
1013.36 1013.91 1014.57 1015.26 1015.92 1016.46 1016.84 1017.05 1017.10 1017.03 1016.90 1016.79 1016.72 1016.74 1016.84 1017.02 1017.23 1017.45 1017.68 1017.90 1018.14 1018.40 1018.72 1019.11 1019.54 1020.01 1020.46 1020.87 1021.20 1021.44 1021.59 1021.68 1021.75 1021.81 1021.90 1022.02 1022.17 1022.34 1022.51 1022.67 1022.81 1022.93 1023.04 1023.14 1023.24 1023.33 1023.40 1023.44 1023.44
1013.81 1014.40 1015.05 1015.68 1016.24 1016.65 1016.90 1016.99 1016.94 1016.81 1016.66 1016.55 1016.52 1016.57 1016.72 1016.92 1017.15 1017.39 1017.62 1017.86 1018.11 1018.40 1018.76 1019.18 1019.65 1020.15 1020.64 1021.07 1021.42 1021.68 1021.85 1021.96 1022.05 1022.14 1022.25 1022.39 1022.56 1022.74 1022.93 1023.11 1023.27 1023.41 1023.55 1023.68 1023.81 1023.91 1023.98 1024.00 1023.97
1014.23 1014.84 1015.46 1016.02 1016.47 1016.76 1016.90 1016.88 1016.77 1016.61 1016.48 1016.41 1016.43 1016.54 1016.73 1016.97 1017.21 1017.45 1017.67 1017.89 1018.14 1018.45 1018.82 1019.28 1019.79 1020.33 1020.84 1021.31 1021.68 1021.96 1022.15 1022.28 1022.38 1022.48 1022.60 1022.75 1022.93 1023.12 1023.32 1023.52 1023.71 1023.89 1024.06 1024.24 1024.39 1024.52 1024.61 1024.63 1024.58
1014.59 1015.20 1015.77 1016.26 1016.60 1016.78 1016.82 1016.74 1016.60 1016.46 1016.36 1016.36 1016.46 1016.64 1016.88 1017.14 1017.38 1017.60 1017.80 1018.00 1018.23 1018.53 1018.91 1019.38 1019.92 1020.49 1021.04 1021.53 1021.92 1022.22 1022.44 1022.58 1022.70 1022.81 1022.95 1023.11 1023.30 1023.50 1023.72 1023.93 1024.15 1024.36 1024.57 1024.79 1024.98 1025.14 1025.25 1025.29 1025.25
1014.88 1015.46 1015.98 1016.37 1016.62 1016.71 1016.68 1016.56 1016.42 1016.32 1016.31 1016.39 1016.57 1016.83 1017.11 1017.39 1017.62 1017.81 1017.97 1018.13 1018.33 1018.61 1018.99 1019.47 1020.02 1020.60 1021.17 1021.68 1022.09 1022.41 1022.65 1022.82 1022.97 1023.11 1023.28 1023.46 1023.68 1023.90 1024.13 1024.36 1024.60 1024.83 1025.07 1025.31 1025.53 1025.73 1025.86 1025.93 1025.92
1015.11 1015.64 1016.08 1016.39 1016.54 1016.56 1016.47 1016.35 1016.23 1016.20 1016.26 1016.44 1016.71 1017.03 1017.35 1017.64 1017.87 1018.03 1018.15 1018.27 1018.43 1018.68 1019.04 1019.50 1020.04 1020.62 1021.19 1021.70 1022.13 1022.47 1022.74 1022.95 1023.14 1023.34 1023.56 1023.80 1024.05 1024.31 1024.56 1024.81 1025.05 1025.29 1025.53 1025.78 1026.01 1026.23 1026.39 1026.50 1026.53
1015.29 1015.76 1016.12 1016.33 1016.40 1016.35 1016.23 1016.10 1016.02 1016.05 1016.19 1016.45 1016.80 1017.17 1017.53 1017.83 1018.05 1018.19 1018.28 1018.36 1018.49 1018.71 1019.03 1019.46 1019.98 1020.52 1021.07 1021.56 1021.99 1022.35 1022.65 1022.92 1023.18 1023.46 1023.75 1024.07 1024.38 1024.69 1024.98 1025.24 1025.48 1025.71 1025.94 1026.17 1026.40 1026.62 1026.81 1026.96 1027.04
1015.47 1015.86 1016.12 1016.24 1016.23 1016.12 1015.97 1015.85 1015.80 1015.87 1016.08 1016.39 1016.79 1017.20 1017.59 1017.90 1018.11 1018.24 1018.31 1018.38 1018.48 1018.67 1018.96 1019.35 1019.81 1020.32 1020.81 1021.28 1021.69 1022.06 1022.40 1022.72 1023.06 1023.43 1023.82 1024.23 1024.63 1025.00 1025.33 1025.61 1025.85 1026.06 1026.27 1026.47 1026.69 1026.91 1027.12 1027.31 1027.45
1015.67 1015.97 1016.14 1016.18 1016.10 1015.94 1015.77 1015.64 1015.60 1015.69 1015.91 1016.25 1016.66 1017.09 1017.48 1017.79 1018.01 1018.14 1018.21 1018.28 1018.38 1018.55 1018.81 1019.16 1019.57 1020.01 1020.45 1020.87 1021.26 1021.63 1021.99 1022.36 1022.78 1023.24 1023.73 1024.23 1024.72 1025.17 1025.55 1025.86 1026.11 1026.31 1026.50 1026.68 1026.89 1027.11 1027.35 1027.58 1027.78
1015.88 1016.11 1016.21 1016.19 1016.06 1015.86 1015.66 1015.51 1015.46 1015.53 1015.73 1016.05 1016.43 1016.82 1017.19 1017.49 1017.71 1017.85 1017.95 1018.04 1018.16 1018.33 1018.58 1018.89 1019.26 1019.64 1020.03 1020.40 1020.75 1021.10 1021.47 1021.88 1022.35 1022.88 1023.45 1024.04 1024.62 1025.13 1025.58 1025.93 1026.21 1026.43 1026.62 1026.81 1027.02 1027.27 1027.53 1027.81 1028.09
1016.10 1016.28 1016.35 1016.29 1016.13 1015.92 1015.70 1015.52 1015.42 1015.44 1015.57 1015.80 1016.11 1016.44 1016.75 1017.02 1017.23 1017.39 1017.52 1017.64 1017.80 1018.00 1018.25 1018.56 1018.90 1019.24 1019.59 1019.92 1020.24 1020.56 1020.92 1021.34 1021.84 1022.40 1023.02 1023.66 1024.29 1024.87 1025.38 1025.79 1026.12 1026.39 1026.63 1026.86 1027.12 1027.41 1027.73 1028.07 1028.41
1016.30 1016.47 1016.53 1016.48 1016.33 1016.12 1015.88 1015.67 1015.51 1015.44 1015.46 1015.57 1015.75 1015.96 1016.19 1016.41 1016.60 1016.76 1016.92 1017.09 1017.30 1017.54 1017.83 1018.15 1018.49 1018.83 1019.16 1019.47 1019.76 1020.07 1020.41 1020.81 1021.28 1021.84 1022.45 1023.11 1023.76 1024.38 1024.95 1025.43 1025.84 1026.20 1026.53 1026.85 1027.19 1027.56 1027.96 1028.37 1028.78
1016.47 1016.66 1016.75 1016.73 1016.63 1016.44 1016.21 1015.95 1015.72 1015.53 1015.41 1015.36 1015.38 1015.46 1015.57 1015.71 1015.86 1016.03 1016.21 1016.42 1016.67 1016.97 1017.30 1017.67 1018.04 1018.40 1018.74 1019.06 1019.36 1019.65 1019.96 1020.32 1020.75 1021.25 1021.83 1022.44 1023.09 1023.73 1024.33 1024.90 1025.41 1025.88 1026.33 1026.77 1027.23 1027.70 1028.19 1028.69 1029.17
1016.59 1016.81 1016.96 1017.02 1016.97 1016.83 1016.60 1016.32 1016.00 1015.68 1015.40 1015.18 1015.03 1014.95 1014.94 1014.99 1015.08 1015.23 1015.42 1015.66 1015.95 1016.29 1016.68 1017.09 1017.52 1017.94 1018.33 1018.68 1019.00 1019.30 1019.60 1019.92 1020.28 1020.71 1021.20 1021.75 1022.35 1022.98 1023.62 1024.25 1024.86 1025.46 1026.04 1026.62 1027.20 1027.79 1028.38 1028.96 1029.52
1016.66 1016.94 1017.16 1017.30 1017.33 1017.23 1017.01 1016.69 1016.28 1015.84 1015.40 1015.00 1014.68 1014.45 1014.31 1014.27 1014.31 1014.42 1014.61 1014.86 1015.17 1015.55 1015.97 1016.44 1016.92 1017.41 1017.87 1018.29 1018.67 1019.00 1019.30 1019.59 1019.89 1020.23 1020.63 1021.10 1021.63 1022.23 1022.88 1023.56 1024.26 1024.97 1025.68 1026.38 1027.08 1027.77 1028.44 1029.09 1029.70
1016.71 1017.04 1017.34 1017.55 1017.65 1017.59 1017.37 1017.00 1016.50 1015.93 1015.34 1014.78 1014.31 1013.94 1013.70 1013.57 1013.56 1013.65 1013.82 1014.06 1014.37 1014.75 1015.20 1015.70 1016.24 1016.79 1017.34 1017.85 1018.30 1018.69 1019.02 1019.30 1019.56 1019.83 1020.14 1020.52 1020.98 1021.54 1022.18 1022.89 1023.65 1024.44 1025.25 1026.04 1026.82 1027.57 1028.29 1028.98 1029.63
1016.76 1017.14 1017.49 1017.77 1017.91 1017.87 1017.63 1017.19 1016.59 1015.90 1015.16 1014.48 1013.88 1013.41 1013.09 1012.92 1012.87 1012.93 1013.08 1013.31 1013.60 1013.96 1014.40 1014.91 1015.48 1016.09 1016.71 1017.31 1017.85 1018.32 1018.69 1018.99 1019.24 1019.47 1019.72 1020.03 1020.44 1020.95 1021.57 1022.28 1023.07 1023.90 1024.74 1025.57 1026.37 1027.14 1027.87 1028.56 1029.21
1016.84 1017.26 1017.66 1017.98 1018.13 1018.07 1017.78 1017.25 1016.54 1015.71 1014.85 1014.05 1013.36 1012.83 1012.47 1012.28 1012.23 1012.29 1012.43 1012.63 1012.90 1013.23 1013.63 1014.12 1014.70 1015.34 1016.01 1016.68 1017.30 1017.84 1018.29 1018.63 1018.90 1019.12 1019.34 1019.62 1019.98 1020.45 1021.05 1021.75 1022.52 1023.34 1024.17 1024.97 1025.74 1026.46 1027.14 1027.79 1028.43
1016.98 1017.44 1017.87 1018.20 1018.33 1018.22 1017.83 1017.19 1016.35 1015.39 1014.41 1013.51 1012.76 1012.20 1011.85 1011.67 1011.65 1011.73 1011.88 1012.08 1012.31 1012.60 1012.96 1013.40 1013.95 1014.58 1015.28 1015.99 1016.67 1017.28 1017.79 1018.18 1018.48 1018.73 1018.96 1019.22 1019.57 1020.02 1020.58 1021.25 1021.99 1022.76 1023.52 1024.25 1024.93 1025.56 1026.15 1026.73 1027.31
1017.16 1017.67 1018.12 1018.44 1018.53 1018.34 1017.84 1017.06 1016.07 1014.98 1013.89 1012.91 1012.12 1011.56 1011.23 1011.11 1011.14 1011.27 1011.45 1011.65 1011.87 1012.12 1012.43 1012.82 1013.31 1013.91 1014.59 1015.30 1016.01 1016.65 1017.21 1017.65 1017.99 1018.27 1018.52 1018.80 1019.15 1019.59 1020.13 1020.76 1021.44 1022.13 1022.80 1023.43 1023.99 1024.50 1024.98 1025.46 1025.98
1017.37 1017.93 1018.42 1018.72 1018.76 1018.47 1017.84 1016.92 1015.79 1014.56 1013.37 1012.32 1011.50 1010.95 1010.67 1010.61 1010.72 1010.91 1011.15 1011.38 1011.60 1011.82 1012.09 1012.42 1012.86 1013.40 1014.03 1014.71 1015.39 1016.04 1016.60 1017.06 1017.43 1017.74 1018.02 1018.32 1018.67 1019.11 1019.64 1020.23 1020.85 1021.47 1022.04 1022.55 1022.99 1023.38 1023.74 1024.13 1024.58
1017.57 1018.20 1018.72 1019.01 1019.00 1018.62 1017.87 1016.82 1015.56 1014.22 1012.93 1011.83 1011.00 1010.46 1010.22 1010.23 1010.41 1010.68 1010.97 1011.25 1011.49 1011.72 1011.95 1012.24 1012.62 1013.09 1013.65 1014.27 1014.90 1015.49 1016.03 1016.48 1016.84 1017.15 1017.44 1017.76 1018.13 1018.57 1019.08 1019.64 1020.21 1020.76 1021.25 1021.67 1022.00 1022.29 1022.56 1022.87 1023.25
1017.69 1018.40 1018.96 1019.25 1019.19 1018.74 1017.91 1016.77 1015.41 1013.99 1012.65 1011.52 1010.67 1010.15 1009.95 1010.00 1010.24 1010.57 1010.93 1011.25 1011.53 1011.77 1012.00 1012.26 1012.59 1013.00 1013.48 1014.00 1014.55 1015.07 1015.53 1015.93 1016.26 1016.55 1016.83 1017.14 1017.51 1017.95 1018.45 1018.99 1019.53 1020.03 1020.46 1020.81 1021.08 1021.31 1021.52 1021.77 1022.11
1017.70 1018.47 1019.06 1019.36 1019.28 1018.80 1017.92 1016.73 1015.34 1013.89 1012.54 1011.40 1010.56 1010.06 1009.88 1009.96 1010.23 1010.60 1010.99 1011.35 1011.66 1011.92 1012.16 1012.41 1012.70 1013.05 1013.46 1013.90 1014.34 1014.76 1015.13 1015.45 1015.71 1015.96 1016.21 1016.51 1016.87 1017.29 1017.79 1018.31 1018.83 1019.30 1019.70 1020.02 1020.27 1020.46 1020.65 1020.88 1021.19
1017.55 1018.36 1018.97 1019.26 1019.18 1018.69 1017.82 1016.64 1015.28 1013.87 1012.56 1011.46 1010.65 1010.17 1010.00 1010.08 1010.35 1010.72 1011.11 1011.48 1011.81 1012.08 1012.34 1012.59 1012.86 1013.17 1013.51 1013.87 1014.21 1014.53 1014.81 1015.03 1015.22 1015.41 1015.62 1015.88 1016.22 1016.64 1017.11 1017.62 1018.13 1018.59 1018.99 1019.31 1019.56 1019.76 1019.96 1020.19 1020.50
1017.25 1018.04 1018.62 1018.90 1018.81 1018.34 1017.52 1016.42 1015.16 1013.85 1012.64 1011.63 1010.89 1010.44 1010.27 1010.33 1010.56 1010.89 1011.25 1011.60 1011.91 1012.19 1012.44 1012.69 1012.95 1013.23 1013.52 1013.81 1014.08 1014.31 1014.50 1014.64 1014.77 1014.90 1015.07 1015.30 1015.62 1016.01 1016.47 1016.97 1017.47 1017.93 1018.33 1018.66 1018.93 1019.16 1019.38 1019.64 1019.96
1016.80 1017.51 1018.01 1018.24 1018.14 1017.70 1016.96 1015.98 1014.87 1013.74 1012.69 1011.81 1011.16 1010.76 1010.59 1010.62 1010.80 1011.05 1011.34 1011.63 1011.89 1012.14 1012.37 1012.61 1012.85 1013.11 1013.36 1013.61 1013.82 1014.00 1014.12 1014.22 1014.31 1014.41 1014.56 1014.78 1015.08 1015.46 1015.90 1016.38 1016.87 1017.32 1017.72 1018.07 1018.36 1018.62 1018.87 1019.15 1019.48
1016.26 1016.82 1017.20 1017.33 1017.19 1016.78 1016.13 1015.31 1014.39 1013.46 1012.61 1011.90 1011.37 1011.04 1010.88 1010.88 1010.98 1011.14 1011.34 1011.53 1011.73 1011.92 1012.11 1012.32 1012.54 1012.76 1012.99 1013.20 1013.38 1013.53 1013.64 1013.72 1013.80 1013.91 1014.07 1014.29 1014.60 1014.97 1015.41 1015.87 1016.33 1016.76 1017.16 1017.50 1017.80 1018.07 1018.35 1018.65 1018.99
Thickness
5749 5753 5754 5746 5726 5714 5711 5718 5724 5719 5720 5723 5724 5720 5714 5706 5697 5685 5703 5710 5706 5700 5694 5690 5688 5687 5685 5684 5683 5683 5683 5683 5683 5683 5684 5684 5685 5685 5686 5686 5686 5686 5685 5684 5683 5683 5682 5682 5682
5750 5754 5748 5736 5716 5704 5709 5721 5721 5721 5722 5723 5722 5720 5718 5710 5710 5706 5709 5711 5708 5702 5696 5692 5689 5686 5684 5683 5682 5681 5681 5681 5680 5681 5681 5681 5681 5681 5682 5682 5682 5681 5680 5679 5678 5677 5677 5677 5677
5750 5752 5738 5729 5719 5709 5712 5725 5723 5722 5725 5725 5720 5723 5719 5711 5712 5710 5714 5714 5709 5704 5698 5693 5690 5687 5684 5682 5681 5680 5679 5679 5678 5678 5678 5678 5678 5678 5678 5678 5677 5676 5675 5674 5673 5672 5672 5672 5672
5748 5743 5738 5723 5718 5723 5727 5730 5727 5720 5722 5725 5724 5718 5717 5719 5719 5718 5717 5715 5710 5705 5699 5694 5690 5687 5685 5683 5681 5679 5679 5678 5677 5676 5676 5675 5675 5674 5674 5673 5673 5672 5671 5669 5668 5667 5667 5667 5667
5746 5736 5722 5717 5724 5728 5733 5737 5733 5722 5720 5722 5723 5719 5711 5717 5720 5720 5717 5715 5711 5706 5700 5695 5691 5688 5685 5683 5681 5679 5678 5676 5675 5674 5673 5673 5672 5671 5670 5669 5668 5667 5666 5665 5663 5662 5662 5661 5662
5735 5732 5713 5711 5722 5729 5733 5737 5735 5729 5727 5725 5722 5719 5712 5717 5717 5717 5718 5716 5712 5707 5701 5695 5692 5689 5686 5683 5681 5679 5677 5675 5674 5673 5672 5670 5669 5668 5667 5665 5664 5663 5661 5660 5658 5657 5657 5656 5656
5727 5720 5712 5720 5723 5726 5732 5738 5734 5730 5726 5726 5729 5721 5713 5715 5719 5719 5718 5716 5712 5707 5702 5696 5692 5689 5686 5683 5681 5679 5676 5674 5673 5671 5670 5668 5666 5665 5663 5662 5660 5658 5657 5655 5653 5652 5651 5651 5650
5733 5724 5717 5721 5725 5727 5734 5736 5738 5734 5730 5734 5732 5722 5714 5718 5720 5718 5716 5715 5712 5708 5703 5697 5693 5690 5686 5683 5681 5678 5676 5674 5671 5669 5668 5666 5664 5662 5660 5658 5656 5654 5652 5651 5649 5647 5646 5645 5645
5734 5713 5707 5721 5727 5731 5734 5732 5734 5736 5733 5730 5731 5723 5725 5724 5719 5714 5711 5710 5709 5707 5704 5700 5695 5692 5688 5684 5681 5678 5675 5673 5670 5668 5666 5664 5661 5659 5657 5655 5653 5650 5648 5646 5644 5642 5641 5640 5639
5722 5704 5713 5731 5737 5735 5734 5733 5730 5727 5724 5722 5723 5722 5723 5720 5715 5710 5708 5706 5706 5704 5704 5702 5698 5694 5690 5686 5682 5678 5675 5672 5669 5667 5664 5663 5660 5657 5654 5651 5649 5646 5644 5642 5640 5638 5636 5635 5634
5722 5715 5725 5731 5732 5733 5733 5733 5737 5727 5720 5726 5725 5721 5719 5717 5714 5711 5710 5709 5708 5706 5704 5703 5700 5696 5692 5688 5683 5680 5676 5672 5669 5666 5664 5662 5659 5655 5651 5648 5645 5642 5640 5638 5636 5634 5632 5630 5628
5719 5722 5724 5726 5723 5725 5729 5731 5732 5727 5730 5734 5738 5735 5723 5719 5716 5715 5714 5712 5710 5708 5706 5704 5701 5697 5694 5690 5686 5682 5678 5674 5671 5667 5665 5661 5657 5653 5649 5646 5643 5640 5638 5635 5632 5630 5627 5625 5622
5709 5716 5719 5718 5717 5720 5721 5723 5726 5729 5736 5737 5737 5732 5725 5722 5721 5721 5719 5716 5714 5710 5709 5706 5702 5699 5695 5691 5687 5684 5680 5676 5673 5669 5665 5662 5658 5653 5649 5645 5641 5639 5635 5632 5628 5625 5622 5619 5616
5711 5715 5713 5713 5714 5715 5713 5718 5723 5728 5738 5735 5731 5729 5728 5726 5725 5722 5721 5719 5717 5715 5712 5709 5704 5700 5696 5692 5688 5685 5681 5678 5674 5670 5666 5662 5658 5654 5649 5645 5640 5637 5633 5629 5625 5620 5616 5613 5609
5705 5701 5702 5707 5709 5712 5709 5706 5717 5731 5737 5733 5730 5729 5729 5730 5729 5727 5727 5724 5722 5719 5716 5711 5706 5701 5697 5693 5689 5686 5682 5678 5674 5670 5666 5662 5658 5653 5649 5644 5639 5634 5630 5625 5620 5615 5610 5606 5602
5693 5688 5685 5702 5705 5704 5697 5693 5723 5736 5732 5727 5728 5729 5729 5731 5733 5733 5733 5730 5727 5722 5718 5714 5709 5703 5698 5694 5690 5686 5682 5678 5674 5670 5666 5662 5657 5653 5647 5642 5637 5632 5627 5622 5616 5611 5605 5600 5595
5677 5672 5680 5692 5699 5697 5690 5694 5721 5727 5727 5723 5726 5730 5732 5733 5735 5736 5736 5734 5730 5726 5721 5715 5711 5705 5700 5695 5690 5686 5682 5678 5674 5670 5666 5661 5657 5652 5646 5640 5635 5629 5624 5618 5613 5606 5602 5596 5589
5670 5672 5682 5686 5689 5690 5684 5690 5708 5719 5719 5720 5724 5730 5733 5734 5736 5739 5738 5736 5733 5728 5723 5718 5712 5706 5700 5694 5689 5685 5681 5677 5673 5669 5665 5660 5656 5650 5645 5639 5632 5626 5620 5614 5609 5602 5596 5591 5584
5676 5674 5679 5685 5681 5683 5679 5687 5701 5715 5719 5720 5723 5728 5732 5736 5742 5744 5742 5738 5733 5728 5724 5719 5713 5707 5700 5694 5689 5684 5680 5676 5672 5668 5664 5659 5654 5649 5643 5637 5630 5624 5618 5612 5606 5599 5589 5583 5577
5669 5663 5666 5676 5674 5673 5672 5681 5699 5711 5719 5724 5727 5730 5733 5737 5740 5742 5742 5739 5734 5729 5724 5719 5714 5709 5702 5697 5692 5687 5681 5675 5671 5665 5661 5657 5653 5648 5642 5637 5630 5622 5615 5607 5601 5595 5585 5577 5574
5656 5653 5657 5662 5666 5666 5661 5668 5693 5712 5723 5729 5732 5734 5736 5737 5738 5740 5740 5738 5734 5729 5724 5720 5715 5709 5703 5697 5690 5683 5677 5672 5667 5663 5659 5656 5651 5647 5641 5636 5629 5621 5614 5607 5600 5593 5588 5578 5570
5641 5657 5658 5655 5645 5646 5656 5644 5690 5710 5717 5723 5726 5728 5730 5734 5737 5738 5738 5735 5733 5729 5724 5718 5712 5707 5701 5695 5689 5683 5679 5674 5671 5665 5659 5653 5648 5643 5639 5633 5627 5620 5614 5606 5599 5593 5588 5580 5571
5642 5645 5648 5646 5637 5632 5647 5637 5665 5701 5703 5714 5722 5726 5730 5734 5736 5737 5736 5734 5732 5727 5720 5714 5708 5703 5698 5693 5687 5681 5677 5673 5667 5661 5655 5649 5643 5639 5635 5630 5624 5618 5612 5605 5597 5589 5583 5578 5572
5631 5631 5628 5627 5622 5612 5638 5634 5654 5685 5700 5713 5722 5726 5727 5728 5730 5730 5729 5727 5724 5720 5714 5708 5703 5698 5694 5688 5683 5677 5672 5666 5660 5656 5651 5644 5638 5633 5629 5625 5620 5614 5608 5602 5594 5586 5579 5575 5569
5621 5612 5597 5596 5592 5608 5644 5642 5662 5695 5710 5715 5717 5719 5720 5719 5717 5716 5716 5714 5712 5708 5704 5699 5695 5691 5687 5682 5677 5672 5666 5660 5655 5651 5646 5640 5633 5628 5623 5618 5614 5610 5604 5597 5590 5582 5575 5569 5563
5607 5611 5589 5582 5588 5607 5631 5628 5663 5690 5696 5702 5705 5707 5708 5708 5707 5707 5706 5704 5701 5698 5694 5690 5686 5682 5679 5675 5670 5665 5660 5654 5650 5646 5641 5636 5631 5624 5617 5611 5607 5603 5597 5591 5584 5577 5570 5563 5557
5600 5602 5616 5597 5592 5583 5605 5642 5669 5677 5682 5686 5690 5692 5693 5695 5696 5696 5695 5694 5691 5687 5684 5680 5677 5673 5670 5666 5662 5657 5653 5648 5644 5639 5635 5631 5625 5618 5611 5605 5600 5595 5590 5585 5579 5572 5564 5558 5552
5604 5607 5589 5578 5571 5571 5598 5620 5640 5660 5662 5669 5673 5675 5680 5682 5683 5684 5682 5681 5679 5676 5673 5670 5667 5663 5660 5656 5652 5648 5644 5640 5636 5631 5627 5623 5619 5612 5605 5598 5592 5587 5582 5577 5571 5565 5558 5551 5545
5586 5589 5591 5583 5577 5569 5575 5613 5661 5664 5662 5659 5661 5663 5663 5664 5665 5667 5667 5666 5664 5663 5660 5657 5654 5652 5648 5645 5642 5638 5634 5631 5627 5623 5619 5614 5610 5604 5598 5591 5584 5579 5574 5569 5563 5558 5551 5544 5538
5585 5586 5583 5568 5567 5579 5576 5608 5656 5655 5651 5649 5649 5650 5651 5651 5651 5651 5651 5649 5647 5646 5644 5643 5641 5639 5637 5634 5631 5627 5624 5621 5617 5614 5610 5605 5600 5595 5589 5582 5576 5571 5565 5560 5555 5550 5544 5538 5531